Weather History for Staunton, VA

Change the Weather History Date:

Monday, August 12, 2013

  Actual Average Record
Temperature  
Mean Temperature 74 °F -  
Max Temperature 85 °F 84 °F 98 °F (2010)
Min Temperature 64 °F 63 °F 48 °F (2008)
Cooling Degree Days 10    
Growing Degree Days 24 (Base 50)    
Moisture  
Dew Point 65 °F    
Average Humidity 73    
Maximum Humidity 96    
Minimum Humidity 44    
Precipitation  
Precipitation 0.00 in - - ()
Sea Level Pressure  
Sea Level Pressure 30.05 in    
Wind  
Wind Speed 1 mph (SSE)    
Max Wind Speed 8 mph    
Max Gust Speed -    
Visibility 7 miles    
Events Fog    
Averages and records for this station are not official NWS values.
T = Trace of Precipitation, MM = Missing Value Source: NWS Daily Summary

Daily Weather History Graph

Daily Weather History Graph

Search for Another Location

Airport:

Trip Planner

Search our weather history database for the weather conditions in past years. The results will help you decide how hot, cold, wet, or windy it might be!

Date:

Astronomy

Aug. 12, 2013 Rise Set
Actual Time 6:27 AM EDT 8:12 PM EDT
Civil Twilight 5:59 AM EDT 8:41 PM EDT
Nautical Twilight 5:25 AM EDT 9:15 PM EDT
Astronomical Twilight 4:48 AM EDT 9:51 PM EDT
Moon 12:10 PM EDT (8/12) 11:10 PM EDT (8/12)
Length of Visible Light 14h 41m
Length of Day
13h 44m
Waxing Crescent, 31% of the Moon is Illuminated
Aug 12
Waxing Crescent
Aug 14
First Quarter
Aug 20
Full
Aug 28
Last Quarter
Sep 5
New

Hourly Weather History & Observations

Time (EDT) Temp. Heat Index Dew Point Humidity Pressure Visibility Wind Dir Wind Speed Gust Speed Precip Events Conditions
3:15 AM 66.4 °F - 64.8 °F 95% 30.08 in 1.8 mi Calm Calm - N/A   Overcast
3:35 AM 65.8 °F - 64.4 °F 95% 30.08 in 0.5 mi Calm Calm - N/A Fog Fog
3:55 AM 66.6 °F - 65.3 °F 96% 30.08 in 0.2 mi Calm Calm - N/A Fog Fog
4:15 AM 65.1 °F - 63.5 °F 94% 30.08 in 0.2 mi Calm Calm - N/A Fog Fog
4:35 AM 64.4 °F - 63.0 °F 95% 30.08 in 0.2 mi Calm Calm - N/A Fog Fog
4:55 AM 64.8 °F - 63.5 °F 96% 30.09 in 0.2 mi Calm Calm - N/A Fog Fog
5:15 AM 65.1 °F - 63.7 °F 95% 30.09 in 0.2 mi Calm Calm - N/A Fog Fog
5:35 AM 64.9 °F - 63.7 °F 96% 30.09 in 0.2 mi Calm Calm - N/A Fog Fog
5:55 AM 64.4 °F - 63.0 °F 95% 30.09 in 0.2 mi Calm Calm - N/A Fog Fog
6:15 AM 64.8 °F - 63.5 °F 96% 30.10 in 0.2 mi Calm Calm - N/A Fog Fog
6:35 AM 64.4 °F - 63.1 °F 96% 30.10 in 0.2 mi Calm Calm - N/A Fog Fog
6:55 AM 64.6 °F - 63.5 °F 96% 30.10 in 0.2 mi Calm Calm - N/A Fog Fog
7:15 AM 64.8 °F - 63.5 °F 96% 30.11 in 0.2 mi Calm Calm - N/A Fog Fog
7:35 AM 65.3 °F - 63.9 °F 95% 30.11 in 0.2 mi Calm Calm - N/A Fog Fog
7:55 AM 65.7 °F - 64.4 °F 96% 30.10 in 0.2 mi Calm Calm - N/A Fog Fog
8:15 AM 66.7 °F - 65.5 °F 96% 30.10 in 0.2 mi Calm Calm - N/A Fog Fog
8:35 AM 68.0 °F - 66.6 °F 95% 30.11 in 2.0 mi Calm Calm - N/A   Overcast
8:55 AM 69.1 °F - 67.8 °F 96% 30.10 in 7.0 mi Calm Calm - N/A   Scattered Clouds
9:15 AM 69.8 °F - 68.5 °F 96% 30.10 in 10.0 mi Calm Calm - N/A   Clear
9:35 AM 70.7 °F - 69.3 °F 95% 30.09 in 10.0 mi Calm Calm - N/A   Clear
9:55 AM 75.0 °F - 66.9 °F 76% 30.09 in 7.0 mi Calm Calm - N/A   Clear
10:15 AM 76.6 °F - 65.8 °F 69% 30.09 in 10.0 mi Calm Calm - N/A   Clear
10:35 AM 77.7 °F - 64.8 °F 64% 30.08 in 10.0 mi South 3.5 mph - N/A   Clear
10:55 AM 78.6 °F - 64.6 °F 62% 30.09 in 10.0 mi WSW 3.5 mph - N/A   Clear
11:15 AM 79.5 °F - 64.8 °F 60% 30.09 in 10.0 mi Calm Calm - N/A   Scattered Clouds
11:35 AM 80.1 °F 82.0 °F 65.5 °F 61% 30.09 in 10.0 mi ENE 4.6 mph - N/A   Mostly Cloudy
11:55 AM 80.2 °F 81.9 °F 64.4 °F 58% 30.09 in 10.0 mi Calm Calm - N/A   Mostly Cloudy
12:15 PM 80.6 °F 82.2 °F 63.9 °F 57% 30.08 in 10.0 mi Calm Calm - N/A   Scattered Clouds
12:35 PM 81.5 °F 82.9 °F 63.9 °F 55% 30.08 in 10.0 mi Calm Calm - N/A   Scattered Clouds
12:55 PM 81.3 °F 82.6 °F 63.1 °F 54% 30.08 in 10.0 mi Calm Calm - N/A   Mostly Cloudy
1:15 PM 82.6 °F 83.9 °F 63.9 °F 53% 30.08 in 10.0 mi SSE 3.5 mph - N/A   Scattered Clouds
1:35 PM 82.8 °F 84.0 °F 63.3 °F 52% 30.07 in 10.0 mi Calm Calm - N/A   Scattered Clouds
1:55 PM 83.3 °F 84.1 °F 62.2 °F 49% 30.06 in 10.0 mi Calm Calm - N/A   Scattered Clouds
2:15 PM 84.6 °F 85.6 °F 63.5 °F 49% 30.06 in 10.0 mi Calm Calm - N/A   Scattered Clouds
2:35 PM 83.5 °F 84.1 °F 61.9 °F 48% 30.06 in 10.0 mi Calm Calm - N/A   Mostly Cloudy
2:55 PM 84.4 °F 84.4 °F 60.3 °F 44% 30.05 in 10.0 mi Calm Calm - N/A   Scattered Clouds
3:15 PM 84.0 °F 84.2 °F 60.8 °F 45% 30.05 in 10.0 mi Calm Calm - N/A   Clear
3:35 PM 84.9 °F 85.6 °F 62.8 °F 47% 30.04 in 10.0 mi Calm Calm - N/A   Clear
3:55 PM 84.9 °F 85.4 °F 62.1 °F 46% 30.03 in 10.0 mi SE 3.5 mph - N/A   Clear
4:15 PM 85.6 °F 86.3 °F 63.0 °F 46% 30.02 in 10.0 mi SSE 8.1 mph - N/A   Clear
4:35 PM 85.1 °F 85.9 °F 62.6 °F 47% 30.02 in 10.0 mi South 5.8 mph - N/A   Clear
4:55 PM 84.2 °F 85.4 °F 63.9 °F 50% 30.02 in 10.0 mi South 5.8 mph - N/A   Scattered Clouds
5:15 PM 82.9 °F 84.8 °F 65.5 °F 55% 30.01 in 10.0 mi South 5.8 mph - N/A   Mostly Cloudy
5:35 PM 82.2 °F 84.2 °F 65.8 °F 57% 30.00 in 10.0 mi SSE 5.8 mph - N/A   Mostly Cloudy
5:55 PM 81.5 °F 83.7 °F 66.2 °F 60% 30.00 in 10.0 mi SSE 5.8 mph - N/A   Scattered Clouds
6:15 PM 80.6 °F 82.9 °F 66.9 °F 63% 30.00 in 10.0 mi SSE 4.6 mph - N/A   Scattered Clouds
6:35 PM 79.9 °F - 67.5 °F 66% 30.00 in 10.0 mi Calm Calm - N/A   Mostly Cloudy
6:55 PM 79.5 °F - 68.0 °F 68% 30.01 in 10.0 mi Calm Calm - N/A   Overcast
7:15 PM 78.8 °F - 68.0 °F 69% 30.00 in 7.0 mi East 3.5 mph - N/A   Mostly Cloudy
7:35 PM 78.1 °F - 68.2 °F 71% 30.00 in 7.0 mi Calm Calm - N/A   Mostly Cloudy
7:55 PM 77.9 °F - 68.0 °F 71% 30.00 in 7.0 mi Calm Calm - N/A   Scattered Clouds
8:15 PM 77.4 °F - 67.8 °F 72% 29.99 in 7.0 mi SE 3.5 mph - N/A   Scattered Clouds
8:35 PM 77.0 °F - 68.2 °F 74% 29.99 in 10.0 mi Calm Calm - N/A   Mostly Cloudy
8:55 PM 76.5 °F - 68.2 °F 75% 30.00 in 10.0 mi Calm Calm - N/A   Overcast
9:15 PM 76.3 °F - 67.6 °F 74% 30.00 in 10.0 mi South 3.5 mph - N/A   Overcast
9:35 PM 76.1 °F - 67.6 °F 75% 30.00 in 10.0 mi Calm Calm - N/A   Scattered Clouds
9:55 PM 76.1 °F - 67.5 °F 74% 30.00 in 10.0 mi South 4.6 mph - N/A   Clear
10:15 PM 76.1 °F - 67.5 °F 74% 30.00 in 10.0 mi SSW 4.6 mph - N/A   Clear
10:35 PM 74.3 °F - 68.0 °F 81% 30.00 in 7.0 mi Calm Calm - N/A   Scattered Clouds
10:55 PM 73.2 °F - 68.2 °F 84% 30.00 in 7.0 mi Calm Calm - N/A   Scattered Clouds
11:15 PM 72.5 °F - 68.0 °F 86% 29.98 in 7.0 mi Calm Calm - N/A   Scattered Clouds
11:35 PM 72.9 °F - 67.3 °F 83% 29.98 in 7.0 mi Calm Calm - N/A   Mostly Cloudy
11:55 PM 72.7 °F - 67.5 °F 84% 29.98 in 7.0 mi Calm Calm - N/A   Overcast